AirNav   ProFlight Series 2 Aviation Headset
 
 912 users online  

48MO Lions Emergency Evac Heliport
California, Missouri, USA

GOING TO CALIFORNIA?


FAA INFORMATION EFFECTIVE 18 JUNE 2020

Location

FAA Identifier: 48MO
Lat/Long: 38-37-38.4600N 092-32-25.9400W
38-37.641000N 092-32.432333W
38.6273500,-92.5405389
(estimated)
Elevation: 860 ft. / 262 m (estimated)
Variation: 04E (1985)
From city: 1 mile E of CALIFORNIA, MO
Time zone: UTC -5 (UTC -6 during Standard Time)
Zip code: 65018

Heliport Operations

Heliport use: Private use, MEDICAL USE.
Activation date: 05/1991
Control tower: no
ARTCC: KANSAS CITY CENTER
FSS: COLUMBIA FLIGHT SERVICE STATION
Attendance: UNATNDD
Wind indicator: lighted
Segmented circle: no
Lights: ACTVT PERIMETER LGTS - 123.05.

Heliport Communications

WX ASOS at JEF (18 nm E): 133.625 (573-635-9266)
WX ASOS at COU (19 nm NE): 128.45 (573-499-1400)

Nearby radio navigation aids

VOR radial/distance  VOR name  Freq  Var
COUr234/18.7COLUMBIA VOR/DME110.2000E
HLVr207/35.0HALLSVILLE VORTAC114.2006E
SHYr005/35.3SUNSHINE VOR/DME108.4000E

Heliport Services

Runway Information

Helipad H1

Dimensions: 30 x 30 ft. / 9 x 9 m
Surface: concrete
Runway edge lights: PERI
Latitude: 38-37.641000N
Longitude: 092-32.432333W
Elevation: 860.0 ft.
Traffic pattern: leftleft

Heliport Ownership and Management from official FAA records

Ownership: Privately-owned
Owner: CALIFORNIA LIONS CLUB
CITY OF CALIFORNIA
CALIFORNIA, MO 65018
Phone (573) 796-3151
ASK FOR BECKY LAWSON
Manager: CITY CLERK
500 S OAK STREET
CALIFORNIA, MO 65018
Phone (573) 796-2500

Additional Remarks

A53-H1 PLINES SOUTH OF HELIPAD MKD WITH DAY GLOW BALLS; POWER POLE 30 FT ENE 100 FT MKD WITH RED LGTS; POWER POLL 30 FT WNE 120 FT MKD WITH RED LGTS.
FOR CD CTC MIZZOU APCH AT 417-868-5620/5619.

Instrument Procedures

There are no published instrument procedures at 48MO.

Some nearby airports with instrument procedures:

H79 - Eldon Model Airpark (16 nm S)
KJEF - Jefferson City Memorial Airport (18 nm E)
KCOU - Columbia Regional Airport (19 nm NE)
KVER - Jesse Viertel Memorial Airport (20 nm N)
KFTT - Elton Hensley Memorial Airport (28 nm NE)
 
Loc | Ops | Rwys | IFR | FBO | Links
Com | Nav | Svcs | Stats | Notes
Area around 48MO (Lions Emergency Evac Heliport)
 
Road maps at: MapQuest Bing Google
 
Aerial photo
No photo
 
Sectional chart

 
Airport distance calculator
Flying to Lions Emergency Evac Heliport? Find the distance to fly.

From to 48MO

Sunrise and sunset
Times for 13-Jul-2020
 Local
(UTC-5)
 Zulu
(UTC)
Morning civil twilight05:2710:27
Sunrise05:5810:58
Sunset20:3401:34
Evening civil twilight21:0502:05

Current date and time
Zulu (UTC)  14-Jul-2020 02:39:16
Local (UTC-5)  13-Jul-2020 21:39:16
 
METAR
KJEF 
18nm E 
140153Z 10006KT 10SM CLR 27/18 A2991 RMK AO2 SLP113 T02720183
KCOU 
19nm NE 
140154Z 10006KT 10SM CLR 26/19 A2993 RMK AO2 SLP126 T02610189
KVER 
20nm N 
140215Z AUTO 10005KT 10SM CLR 28/20 A2991 RMK AO2 T02750201
KDMO 
30nm W 
140153Z AUTO 13006KT 10SM CLR 27/19 A2991 RMK AO2 SLP121 T02670194
KAIZ 
32nm S 
140156Z AUTO 00000KT 10SM CLR 26/20 A2994 RMK AO2 SLP128 T02610200
TAF
KCOU 
19nm NE 
131720Z 1318/1418 14006KT P6SM FEW040 FM141500 15010KT P6SM SCT040
NOTAMs
Click for the latest NOTAMs
NOTAMs are issued by the DoD/FAA and will open in a separate window not controlled by AirNav.

 

 
 

Would you like to see your business listed on this page?

 If your business provides an interesting product or service to pilots, flight crews, aircraft, or users of the Lions Emergency Evac Heliport, you should consider listing it here.  To start the listing process, click on the button below
 
Add a business
 

Other Pages about Lions Emergency Evac Heliport

Update a link
 
Copyright © AirNav, LLC. All rights reserved. Privacy Policy  Contact